Ponca City, OK

11:14 PM CDT on July 23, 2017 (GMT -0500)
Ponca City Municipal

Weather History for KPNC - January, 2014

Change the Weather History Date:

Wednesday, January 15, 2014

  Actual Average Record
Temperature  
Mean Temperature 36 °F -  
Max Temperature 51 °F 49 °F 70 °F (1952)
Min Temperature 21 °F 25 °F -3 °F (1972)
Degree Days  
Heating Degree Days 29    
Moisture  
Dew Point 21 °F    
Average Humidity 55    
Maximum Humidity 82    
Minimum Humidity 32    
Precipitation  
Precipitation 0.00 in - - ()
Sea Level Pressure  
Sea Level Pressure 30.18 in    
Wind  
Wind Speed 5 mph (SW)    
Max Wind Speed 10 mph    
Max Gust Speed 16 mph    
Visibility 10 miles    
Events      
Averages and records for this station are not official NWS values.
T = Trace of Precipitation, MM = Missing Value Source: NWS Daily Summary

Daily Weather History Graph

Daily Weather History Graph

Search for Another Location

Airport or City:

Trip Planner

Search our weather history database for the weather conditions in past years. The results will help you decide how hot, cold, wet, or windy it might be!

Date:

Astronomy

Jan. 15, 2014 Rise Set
Actual Time 7:40 AM CST 5:36 PM CST
Civil Twilight 7:11 AM CST 6:04 PM CST
Nautical Twilight 6:40 AM CST 6:36 PM CST
Astronomical Twilight 6:08 AM CST 7:07 PM CST
Moon 5:33 PM CST (1/15) 6:58 AM CST (1/15)
Length of Visible Light 10h 52m
Length of Day
9h 56m
Full, 100% of the Moon is Illuminated
Jan 15
Full
Jan 15
Full
Jan 23
Last Quarter
Jan 30
New
Feb 6
First Quarter

Hourly Weather History & Observations

Time (CST) Temp. Windchill Dew Point Humidity Pressure Visibility Wind Dir Wind Speed Gust Speed Precip Events Conditions
12:53 AM 28.9 °F 21.1 °F 19.0 °F 67% 30.34 in 10.0 mi NNW 8.1 mph - N/A   Clear
1:53 AM 24.1 °F 16.0 °F 18.0 °F 77% 30.34 in 10.0 mi North 6.9 mph - N/A   Clear
2:53 AM 25.0 °F 18.1 °F 18.0 °F 75% 30.34 in 10.0 mi North 5.8 mph - N/A   Clear
3:53 AM 23.0 °F - 17.1 °F 78% 30.34 in 10.0 mi Calm Calm - N/A   Clear
4:53 AM 24.1 °F - 19.0 °F 81% 30.33 in 10.0 mi Calm Calm - N/A   Clear
5:53 AM 24.1 °F - 18.0 °F 77% 30.34 in 10.0 mi Calm Calm - N/A   Clear
6:53 AM 24.1 °F 18.2 °F 18.0 °F 77% 30.33 in 10.0 mi SW 4.6 mph - N/A   Clear
7:53 AM 21.9 °F - 17.1 °F 82% 30.33 in 10.0 mi Calm Calm - N/A   Clear
8:53 AM 26.1 °F - 19.9 °F 78% 30.33 in 10.0 mi Calm Calm - N/A   Clear
9:53 AM 34.0 °F 27.2 °F 24.1 °F 67% 30.32 in 10.0 mi West 8.1 mph - N/A   Clear
10:53 AM 39.9 °F 36.7 °F 24.1 °F 53% 30.30 in 10.0 mi West 4.6 mph - N/A   Overcast
11:53 AM 44.1 °F 40.1 °F 19.9 °F 38% 30.26 in 10.0 mi WNW 6.9 mph - N/A   Scattered Clouds
12:53 PM 46.9 °F - 19.9 °F 34% 30.20 in 10.0 mi WSW 8.1 mph - N/A   Scattered Clouds
1:53 PM 48.0 °F - 19.9 °F 33% 30.16 in 10.0 mi WSW 5.8 mph 16.1 mph N/A   Scattered Clouds
2:53 PM 50.0 °F - 21.0 °F 32% 30.12 in 10.0 mi SW 10.4 mph - N/A   Clear
3:53 PM 51.1 °F - 21.9 °F 32% 30.08 in 10.0 mi SSW 9.2 mph - N/A   Clear
4:53 PM 50.0 °F - 21.9 °F 33% 30.05 in 10.0 mi SSW 5.8 mph - N/A   Clear
5:53 PM 45.0 °F 42.6 °F 23.0 °F 42% 30.04 in 10.0 mi South 4.6 mph - N/A   Clear
6:53 PM 46.9 °F - 23.0 °F 39% 30.02 in 10.0 mi South 6.9 mph - N/A   Clear
7:53 PM 46.0 °F 41.0 °F 21.9 °F 39% 29.99 in 10.0 mi South 10.4 mph - N/A   Clear
8:53 PM 44.1 °F 39.5 °F 23.0 °F 43% 29.98 in 10.0 mi South 8.1 mph - N/A   Partly Cloudy
9:53 PM 43.0 °F 38.2 °F 23.0 °F 45% 29.94 in 10.0 mi South 8.1 mph - N/A   Clear
10:53 PM 39.9 °F 36.7 °F 23.0 °F 51% 29.93 in 10.0 mi Variable 4.6 mph - N/A   Clear
11:53 PM 41.0 °F 38.0 °F 24.1 °F 51% 29.90 in 10.0 mi South 4.6 mph - N/A   Clear